Terminal Aerodrome Forecast
Issued by NWS

Home | Current Version | Previous Version | Text Only | Print | Product List | Glossary On
Versions: 1 2 3 4 5 6 7 8 9 10 11 12 13 14 15 16 17 18 19
000
FTUS46 KLOX 201100
TAFSBP
TAF
KSBP 201125Z 2012/2112 VRB03KT P6SM OVC015
     FM202000 31012KT P6SM SCT020
     FM210400 30007KT P6SM OVC020
     FM210700 VRB03KT P6SM OVC015=

USA.gov is the U.S. government's official web portal to all federal, state and local government web resources and services.